STARLINK-32851, 62810

Orbit data source: Space-Track

STARLINK-32851, 62810 is a payload satellite owned by SpaceX/Seattle (US) in LEO that was launched on Fri, 24 Jan 2025 UTC via an FALCON 9 launch vehicle from the Air Force Western Test Range (AFWTR). Payload-class satellites include a variety of spacecraft equipped with specific instruments for various scientific and technological missions. These include communications satellites like Starlink; space stations such as the ISS; scientific satellites like the Hubble; Earth observation satellites from companies like Planet Labs, Umbra, and HawkEye 360; GPS; miniature CubeSats for education and research; and military/defense satellites.

Loading next visibility...
Identifier
62810, 2025-018E
Orbit
LEO
Last TLE update
12 hours ago
Origin
Manufacturer
SpaceX/Seattle
Mission
Operational Commercial Communications
Bus & Motor
STARLINK V2M, Unknown motor
Mass
730 kg wet, ~700 kg dry
Launch date (UTC)
2025-01-24 (3 months ago)
Launch vehicle
FALCON 9
Launch site
Air Force Western Test Range (AFWTR)
Object type
Payload
Rocket body
Debris
Shape & HBR
Box + 2 Pan, 29 m
Radar Cross Section
33.884 m², Large (>1 m²)

Expand to show TLE details & history

TLE from 12 hours ago
0 STARLINK-32851
1 62810U 25018E   25128.72696786 -.00000534  00000-0 -33716-5 0  9991
2 62810  53.1626 287.7978 0001193  98.9608 261.1532 15.39623444 16451
Epoch: 2025-05-08T17:26Z
Definitive object data (Epoch: 2025-05-08T17:26:50.023Z)
Latitude
-0°
Longitude
159.29605°
Altitude
448.251 km
Speed
7.644 km/s
True Right ascension
19h 11m 11s
True Declination
0° 00' 00"
Sunlit
Object was in full shadow at TLE epoch
Visualization TLE readout
Latitude
-22.6727°
Longitude
-4.89071°
Altitude
453.929 km
Speed
7.64 km/s
Apparent Right ascension
05h 24m 51s
Apparent Declination
-43° 20' 04"
Sunlit
Object is in daylight
Visualization observer readout
Local Sidereal Time
13:23:55
Azimuth
244.984° WSW
Elevation
-45.832°
Doppler factor
1
Orbital elements
Apogee altitude
448.293 km
Perigee altitude
446.665 km
Semi-major axis
6,825.616 km
Eccentricity
0.0001193
Inclination
53.1626°
RAAN
287.7978°
Arg. of periapsis
98.9608°
True anomaly
261.13969°
Mean anomaly
261.1532°
Eccentric anomaly
261.14645°
Mean motion
3.84884 °/min
BSTAR
-0.0000033716
Orbital period
93.53 mins
Loading maneuver chart data...
Loading SW <> Apogee altitude chart data...
Loading historical data...
Loading historical data...
Loading historical data...
Loading historical data...
Loading historical data...
Loading historical data...
Loading historical data...

STARLINK-32851 Visibility forecast

Observer location: undefined°, undefined°

Span
Click to sort rows by Start time (UTC) header in descending order
Start Az.
Max El. time (UTC)
Max El. Az.
Max El.
End time (UTC)
End Az.
4 mins2025-05-09 12:18:17.180Z171.582° S2025-05-09 12:20:17.180Z127.942° SE20.213°2025-05-09 12:22:17.180Z86.101° E
5 mins2025-05-09 13:55:17.180Z264.672° W2025-05-09 13:57:17.180Z324.565° NNW33.076°2025-05-09 14:00:17.180Z35.868° NE
4 mins2025-05-09 20:28:17.180Z284.168° WNW2025-05-09 20:29:17.180Z253.554° W35.067°2025-05-09 20:32:17.180Z153.903° SSE
|